Tracking 29510 objects as of 16-Sep-2024
HD Live streaming from Space Station
objects crossing your sky now

MINOTAUR 4 DEB

Track MINOTAUR 4 DEB now!
10-day predictions


NORAD ID: 52037
Int'l Code: 2020-046AB
Perigee: 562.7 km
Apogee: 577.3 km
Inclination: 54.0 °
Period: 95.9 minutes
Semi major axis: 6940 km
RCS: Unknown
Launch date: July 15, 2020
Source: United States (US)
Launch site: WALLOPS ISLAND (WLPIS)

Note: This is SATELLITE DEBRIS
Your satellite tracking list
Your tracking list is empty




NASA's NSSDC Master Catalog

Two Line Element Set (TLE):
1 52037U 20046AB  24259.85228027  .00004650  00000-0  37771-3 0  9998
2 52037  53.9800 156.1266 0010495  63.1012 297.1058 15.01316635145725
Source of the keplerian elements: AFSPC